Harrison, AR

10:46 PM CDT on June 24, 2017 (GMT -0500)
Boone County

Weather History for KHRO - April, 2013

Change the Weather History Date:

Sunday, April 21, 2013

  Actual Average Record
Temperature  
Mean Temperature 57 °F 60 °F  
Max Temperature 68 °F 71 °F 93 °F (1963)
Min Temperature 46 °F 49 °F 31 °F (1956)
Degree Days  
Heating Degree Days 8 7  
Month to date heating degree days 199 192  
Since 1 July heating degree days 3752 3872  
Cooling Degree Days 0 1  
Month to date cooling degree days 20 21  
Year to date cooling degree days 27 27  
Growing Degree Days 6 (Base 50)    
Moisture  
Dew Point 37 °F    
Average Humidity 54    
Maximum Humidity 82    
Minimum Humidity 26    
Precipitation  
Precipitation 0.00 in 0.16 in 3.29 in (1928)
Month to date precipitation 1.62 2.85  
Year to date precipitation 10.84 11.84  
Snow  
Snow 0.00 in 0.00 in - ()
Month to date snowfall T 0.3  
Since 1 July snowfall 4.6 11.5  
Snow Depth 0.00 in    
Sea Level Pressure  
Sea Level Pressure 30.23 in    
Wind  
Wind Speed 9 mph (SE)    
Max Wind Speed 20 mph    
Max Gust Speed 25 mph    
Visibility 10 miles    
Events      
T = Trace of Precipitation, MM = Missing Value Source: NWS Daily Summary

Daily Weather History Graph

Daily Weather History Graph

Search for Another Location

Airport or City:

Trip Planner

Search our weather history database for the weather conditions in past years. The results will help you decide how hot, cold, wet, or windy it might be!

Date:

Astronomy

Apr. 21, 2013 Rise Set
Actual Time 6:31 AM CDT 7:51 PM CDT
Civil Twilight 6:04 AM CDT 8:18 PM CDT
Nautical Twilight 5:32 AM CDT 8:51 PM CDT
Astronomical Twilight 4:58 AM CDT 9:24 PM CDT
Moon 3:44 PM CDT (4/21) 3:45 AM CDT (4/21)
Length of Visible Light 14h 14m
Length of Day
13h 20m
Waxing Gibbous, 80% of the Moon is Illuminated
Apr 21
Waxing Gibbous
Apr 25
Full
May 2
Last Quarter
May 9
New
May 17
First Quarter

Hourly Weather History & Observations

Time (CDT) Temp. Windchill Dew Point Humidity Pressure Visibility Wind Dir Wind Speed Gust Speed Precip Events Conditions
12:53 AM 52.0 °F - 37.9 °F 59% 30.21 in 10.0 mi ESE 4.6 mph - N/A   Clear
1:53 AM 51.1 °F - 39.0 °F 63% 30.21 in 10.0 mi ESE 6.9 mph - N/A   Clear
2:53 AM 50.0 °F - 39.0 °F 66% 30.21 in 10.0 mi ESE 6.9 mph - N/A   Clear
3:53 AM 48.9 °F - 39.0 °F 69% 30.22 in 10.0 mi ESE 6.9 mph - N/A   Clear
4:53 AM 48.0 °F - 39.0 °F 71% 30.24 in 10.0 mi ESE 3.5 mph - N/A   Clear
5:53 AM 46.9 °F - 39.0 °F 74% 30.26 in 10.0 mi East 4.6 mph - N/A   Clear
6:53 AM 46.0 °F 43.9 °F 39.9 °F 79% 30.29 in 10.0 mi ESE 4.6 mph - N/A   Clear
7:53 AM 46.9 °F - 41.0 °F 80% 30.30 in 10.0 mi SE 3.5 mph - N/A   Clear
8:53 AM 51.1 °F - 41.0 °F 68% 30.30 in 10.0 mi ESE 6.9 mph - N/A   Clear
9:53 AM 55.0 °F - 41.0 °F 59% 30.30 in 10.0 mi ESE 8.1 mph - N/A   Clear
10:53 AM 59.0 °F - 39.9 °F 49% 30.30 in 10.0 mi SE 10.4 mph - N/A   Clear
11:53 AM 59.0 °F - 39.0 °F 48% 30.29 in 10.0 mi SE 10.4 mph - N/A   Partly Cloudy
12:53 PM 62.1 °F - 39.0 °F 43% 30.26 in 10.0 mi ESE 8.1 mph - N/A   Clear
1:53 PM 64.9 °F - 37.0 °F 36% 30.22 in 10.0 mi ESE 16.1 mph 21.9 mph N/A   Partly Cloudy
2:53 PM 66.0 °F - 35.1 °F 32% 30.20 in 10.0 mi SSE 15.0 mph - N/A   Clear
3:53 PM 64.9 °F - 33.1 °F 31% 30.17 in 10.0 mi SE 13.8 mph - N/A   Mostly Cloudy
4:53 PM 66.0 °F - 33.1 °F 29% 30.15 in 10.0 mi SE 13.8 mph 21.9 mph N/A   Overcast
5:53 PM 66.9 °F - 30.9 °F 26% 30.15 in 10.0 mi SE 12.7 mph 25.3 mph N/A   Clear
6:53 PM 64.0 °F - 30.0 °F 28% 30.15 in 10.0 mi ESE 12.7 mph - N/A   Clear
7:53 PM 60.1 °F - 33.1 °F 36% 30.18 in 10.0 mi SE 9.2 mph - N/A   Clear
8:53 PM 57.0 °F - 35.1 °F 44% 30.20 in 10.0 mi ESE 6.9 mph - N/A   Clear
9:53 PM 54.0 °F - 37.9 °F 55% 30.21 in 10.0 mi ESE 8.1 mph - N/A   Clear
10:53 PM 50.0 °F - 37.9 °F 63% 30.22 in 10.0 mi SSE 5.8 mph - N/A   Clear
11:53 PM 50.0 °F - 37.9 °F 63% 30.23 in 10.0 mi ESE 6.9 mph - N/A   Clear